Total_Precipitation_Accumulation
0.23 0.18 0.25 0.27 0.23 0.23 0.30 0.28 0.19 0.05 0.01 0.02 0.02 0.01 0.01 0.01 0.00 0.00 0.00 0.00 0.00 0.00 0.01 0.02 0.02 0.04 0.05 0.06 0.06 0.06 0.08 0.12 0.16 0.21 0.24 0.27 0.28 0.30 0.33 0.37 0.42 0.45 0.46 0.47
0.23 0.16 0.19 0.19 0.16 0.17 0.18 0.13 0.09 0.03 0.01 0.01 0.01 0.01 0.01 0.01 0.01 0.01 0.01 0.01 0.01 0.01 0.02 0.04 0.07 0.10 0.11 0.10 0.12 0.16 0.22 0.27 0.30 0.30 0.32 0.33 0.34 0.36 0.39 0.43 0.45 0.47 0.48 0.46
0.33 0.22 0.30 0.27 0.12 0.11 0.11 0.07 0.07 0.05 0.02 0.01 0.01 0.02 0.02 0.02 0.03 0.03 0.02 0.02 0.02 0.03 0.04 0.07 0.15 0.20 0.17 0.15 0.17 0.23 0.29 0.31 0.30 0.28 0.28 0.28 0.29 0.33 0.36 0.35 0.33 0.33 0.34 0.33
0.38 0.36 0.55 0.22 0.08 0.06 0.07 0.07 0.07 0.06 0.04 0.03 0.02 0.02 0.03 0.03 0.04 0.04 0.05 0.05 0.05 0.05 0.05 0.07 0.13 0.15 0.14 0.14 0.17 0.20 0.25 0.30 0.31 0.29 0.28 0.26 0.23 0.22 0.23 0.22 0.19 0.18 0.17 0.17
0.47 0.41 0.28 0.11 0.10 0.11 0.12 0.12 0.12 0.09 0.06 0.03 0.03 0.03 0.04 0.05 0.04 0.04 0.05 0.05 0.05 0.05 0.06 0.06 0.07 0.08 0.09 0.11 0.14 0.18 0.23 0.25 0.25 0.24 0.25 0.24 0.20 0.16 0.14 0.13 0.13 0.11 0.09 0.08
0.53 0.42 0.21 0.14 0.12 0.11 0.12 0.17 0.16 0.10 0.08 0.06 0.08 0.20 0.12 0.08 0.05 0.04 0.03 0.03 0.03 0.03 0.04 0.04 0.05 0.07 0.07 0.07 0.09 0.12 0.15 0.16 0.13 0.13 0.13 0.12 0.09 0.07 0.06 0.07 0.08 0.07 0.06 0.05
0.50 0.35 0.13 0.10 0.10 0.13 0.25 0.31 0.21 0.14 0.11 0.13 0.19 0.26 0.15 0.07 0.05 0.04 0.02 0.02 0.02 0.03 0.05 0.06 0.07 0.06 0.04 0.05 0.07 0.07 0.07 0.06 0.04 0.04 0.04 0.03 0.02 0.02 0.03 0.04 0.05 0.05 0.05 0.04
0.43 0.38 0.17 0.11 0.15 0.26 0.34 0.22 0.17 0.16 0.13 0.15 0.11 0.06 0.04 0.04 0.04 0.03 0.02 0.02 0.02 0.04 0.05 0.07 0.06 0.03 0.02 0.03 0.04 0.03 0.03 0.02 0.02 0.01 0.01 0.02 0.02 0.03 0.03 0.03 0.05 0.05 0.05 0.05
0.32 0.23 0.12 0.14 0.19 0.19 0.17 0.15 0.13 0.15 0.14 0.15 0.12 0.06 0.04 0.03 0.03 0.02 0.02 0.03 0.04 0.06 0.07 0.05 0.03 0.01 0.01 0.02 0.02 0.01 0.01 0.01 0.01 0.01 0.02 0.02 0.03 0.03 0.04 0.05 0.07 0.08 0.08 0.07
0.16 0.10 0.09 0.10 0.12 0.12 0.10 0.10 0.09 0.10 0.14 0.15 0.13 0.08 0.05 0.03 0.03 0.02 0.03 0.04 0.07 0.07 0.05 0.04 0.01 0.00 0.00 0.00 0.00 0.01 0.01 0.01 0.01 0.02 0.03 0.03 0.03 0.04 0.05 0.08 0.17 0.23 0.19 0.15
0.09 0.06 0.06 0.07 0.07 0.08 0.07 0.06 0.06 0.05 0.07 0.10 0.09 0.07 0.05 0.04 0.03 0.04 0.04 0.05 0.05 0.05 0.04 0.02 0.01 0.00 0.00 0.00 0.01 0.01 0.01 0.01 0.02 0.03 0.03 0.04 0.04 0.04 0.06 0.08 0.23 0.40 0.34 0.30
0.08 0.05 0.05 0.04 0.04 0.06 0.07 0.06 0.08 0.07 0.05 0.04 0.05 0.06 0.05 0.05 0.05 0.04 0.05 0.05 0.05 0.04 0.03 0.01 0.01 0.01 0.00 0.00 0.01 0.01 0.02 0.02 0.03 0.04 0.04 0.05 0.05 0.05 0.06 0.08 0.13 0.17 0.21 0.29
0.03 0.03 0.02 0.02 0.02 0.03 0.05 0.07 0.09 0.08 0.06 0.04 0.04 0.04 0.04 0.04 0.04 0.04 0.04 0.04 0.04 0.03 0.02 0.02 0.02 0.01 0.01 0.01 0.01 0.02 0.03 0.04 0.05 0.06 0.06 0.07 0.08 0.09 0.09 0.07 0.07 0.08 0.11 0.17
0.01 0.02 0.02 0.02 0.03 0.03 0.04 0.06 0.07 0.07 0.05 0.04 0.03 0.03 0.03 0.03 0.03 0.03 0.03 0.03 0.03 0.02 0.02 0.02 0.03 0.01 0.01 0.01 0.01 0.02 0.03 0.05 0.07 0.08 0.09 0.10 0.11 0.12 0.14 0.14 0.11 0.07 0.07 0.11
0.01 0.02 0.02 0.02 0.02 0.03 0.04 0.05 0.06 0.05 0.04 0.02 0.02 0.03 0.03 0.03 0.03 0.03 0.03 0.03 0.02 0.02 0.02 0.02 0.03 0.02 0.01 0.01 0.02 0.03 0.04 0.06 0.10 0.12 0.12 0.12 0.13 0.14 0.14 0.15 0.14 0.12 0.09 0.10
0.02 0.02 0.01 0.01 0.02 0.03 0.03 0.04 0.06 0.05 0.04 0.03 0.03 0.04 0.04 0.03 0.03 0.03 0.02 0.02 0.02 0.01 0.02 0.02 0.03 0.03 0.02 0.02 0.03 0.04 0.04 0.08 0.13 0.14 0.15 0.15 0.16 0.18 0.18 0.19 0.18 0.17 0.16 0.16
0.04 0.03 0.02 0.02 0.02 0.03 0.04 0.05 0.06 0.05 0.04 0.03 0.04 0.04 0.04 0.03 0.03 0.03 0.03 0.02 0.02 0.01 0.01 0.02 0.03 0.04 0.03 0.03 0.05 0.05 0.06 0.08 0.12 0.15 0.16 0.18 0.21 0.23 0.24 0.26 0.25 0.22 0.17 0.17
0.04 0.05 0.04 0.04 0.04 0.05 0.05 0.05 0.05 0.05 0.04 0.03 0.04 0.05 0.05 0.04 0.04 0.04 0.04 0.03 0.03 0.02 0.02 0.02 0.05 0.05 0.04 0.05 0.07 0.08 0.10 0.12 0.14 0.18 0.20 0.20 0.24 0.25 0.27 0.28 0.26 0.23 0.18 0.15
0.03 0.04 0.04 0.05 0.06 0.07 0.06 0.05 0.04 0.05 0.04 0.04 0.05 0.06 0.06 0.06 0.06 0.06 0.05 0.04 0.04 0.04 0.03 0.03 0.06 0.05 0.05 0.06 0.11 0.12 0.16 0.20 0.20 0.18 0.19 0.22 0.23 0.21 0.24 0.26 0.25 0.23 0.21 0.19
0.04 0.04 0.05 0.06 0.07 0.07 0.07 0.06 0.05 0.05 0.05 0.04 0.05 0.07 0.08 0.07 0.08 0.08 0.08 0.07 0.06 0.06 0.05 0.05 0.06 0.07 0.08 0.11 0.18 0.21 0.21 0.22 0.22 0.22 0.22 0.24 0.25 0.25 0.24 0.25 0.26 0.25 0.23 0.22
0.06 0.06 0.07 0.08 0.07 0.07 0.08 0.08 0.08 0.08 0.06 0.06 0.08 0.10 0.10 0.10 0.10 0.10 0.10 0.09 0.08 0.09 0.08 0.07 0.08 0.13 0.17 0.21 0.23 0.22 0.20 0.22 0.24 0.26 0.28 0.28 0.29 0.28 0.26 0.27 0.28 0.28 0.28 0.26
0.09 0.10 0.11 0.11 0.09 0.08 0.09 0.09 0.10 0.10 0.10 0.09 0.10 0.12 0.12 0.13 0.12 0.12 0.11 0.11 0.11 0.14 0.12 0.10 0.12 0.20 0.23 0.24 0.20 0.20 0.21 0.23 0.26 0.28 0.30 0.31 0.34 0.34 0.32 0.31 0.33 0.32 0.31 0.29
0.13 0.13 0.13 0.13 0.12 0.11 0.10 0.10 0.10 0.11 0.12 0.12 0.13 0.14 0.14 0.15 0.15 0.15 0.15 0.14 0.14 0.16 0.16 0.14 0.18 0.22 0.23 0.20 0.18 0.19 0.23 0.27 0.30 0.33 0.34 0.35 0.37 0.39 0.39 0.37 0.36 0.35 0.35 0.33
0.15 0.14 0.13 0.13 0.12 0.12 0.11 0.11 0.11 0.11 0.12 0.12 0.12 0.13 0.15 0.16 0.16 0.17 0.18 0.19 0.19 0.19 0.18 0.20 0.22 0.23 0.24 0.22 0.22 0.25 0.30 0.35 0.40 0.41 0.40 0.40 0.39 0.39 0.40 0.40 0.40 0.37 0.35 0.33
0.18 0.16 0.14 0.13 0.14 0.14 0.13 0.12 0.12 0.12 0.13 0.13 0.13 0.14 0.16 0.17 0.18 0.20 0.21 0.23 0.23 0.23 0.23 0.24 0.26 0.27 0.26 0.27 0.31 0.35 0.39 0.43 0.50 0.54 0.50 0.45 0.41 0.39 0.38 0.39 0.40 0.39 0.36 0.33
0.21 0.20 0.18 0.16 0.17 0.17 0.16 0.16 0.15 0.15 0.15 0.16 0.16 0.17 0.18 0.19 0.21 0.22 0.23 0.25 0.26 0.25 0.25 0.27 0.29 0.31 0.32 0.35 0.39 0.42 0.44 0.44 0.48 0.50 0.47 0.45 0.42 0.41 0.39 0.40 0.39 0.38 0.35 0.32
0.23 0.22 0.19 0.17 0.18 0.19 0.19 0.20 0.21 0.21 0.21 0.21 0.22 0.23 0.22 0.23 0.24 0.23 0.24 0.25 0.27 0.27 0.27 0.29 0.32 0.34 0.37 0.41 0.44 0.46 0.46 0.46 0.50 0.55 0.55 0.50 0.45 0.43 0.41 0.41 0.41 0.38 0.35 0.32